M I D A S
Marine Information and Data Acquisition System
Tripno 2264 of the Zeeleeuw from 2012-02-13 09:27:11 to 2012-02-13 15:21:38
Back to CruiseResearch ActivitiesStationsMapUnderway DataData graphs

EquipmentUnitsComments
TimeDGPSUTC
LatitudeDGPSDM.mWGS84
LongitudeDGPSDM.mWGS84
SpeedMeteo Stationm/sRelative wind speed
DirectionMeteo StationdegRelative wind direction
TemperatureMeteo Stationdeg CelciusAir temperature
PressureMeteo StationPaAtmospheric pressure
HumidityMeteo Station%Relative humidity
Missing or incorrect values are displayed as -999
Metereological data collected by the RV Zeeleeuw from 2012-02-13 07:31:11 to 2012-02-13 15:31:12
Time Latitude Longitude Speed Direction Temperature Pressure Humidity
2012-02-13 07:32 51°13.635 2°56.019 4.1 77 3.5 102710 48
2012-02-13 07:33 51°13.636 2°56.02 2.8 75 3.6 102700 48
2012-02-13 07:34 51°13.636 2°56.02 2.6 76 3.6 102710 50
2012-02-13 07:35 51°13.636 2°56.019 4.5 75 3.6 102710 48
2012-02-13 07:36 51°13.637 2°56.019 3.2 74 3.6 102710 47
2012-02-13 07:37 51°13.637 2°56.021 2.2 74 3.6 102720 51
2012-02-13 07:38 51°13.637 2°56.02 4.2 76 3.6 102710 51
2012-02-13 07:39 51°13.637 2°56.019 5.2 80 3.6 102720 51
2012-02-13 07:40 51°13.638 2°56.019 3.1 80 3.6 102720 49
2012-02-13 07:41 51°13.637 2°56.019 3.9 79 3.5 102710 48
2012-02-13 07:42 51°13.636 2°56.018 2.9 81 3.5 102710 48
2012-02-13 07:43 51°13.636 2°56.019 2.9 79 3.5 102710 51
2012-02-13 07:44 51°13.635 2°56.019 3.6 78 3.5 102710 48
2012-02-13 07:45 51°13.637 2°56.019 3.9 79 3.5 102710 48
2012-02-13 07:46 51°13.638 2°56.02 4.8 77 3.5 102710 48
2012-02-13 07:47 51°13.639 2°56.02 3.9 80 3.5 102710 51
2012-02-13 07:48 51°13.637 2°56.019 3.8 79 3.4 102710 49
2012-02-13 07:49 51°13.636 2°56.018 4.2 78 3.4 102710 51
2012-02-13 07:50 51°13.636 2°56.018 3.8 73 3.4 102710 48
2012-02-13 07:51 51°13.635 2°56.017 4.6 75 3.4 102710 48
2012-02-13 07:52 51°13.636 2°56.018 3.5 74 3.4 102700 51
2012-02-13 07:53 51°13.635 2°56.019 3.5 81 3.4 102700 48
2012-02-13 07:54 51°13.636 2°56.018 3 79 3.4 102700 51
2012-02-13 07:55 51°13.637 2°56.018 3 77 3.4 102710 51
2012-02-13 07:56 51°13.637 2°56.018 3.9 81 3.4 102710 48
2012-02-13 07:57 51°13.637 2°56.018 3.4 78 3.4 102710 48
2012-02-13 07:58 51°13.636 2°56.018 2.9 75 3.3 102710 52
2012-02-13 07:59 51°13.637 2°56.019 4.1 75 3.3 102710 51
2012-02-13 08:00 51°13.636 2°56.019 2.8 75 3.3 102700 51
2012-02-13 08:01 51°13.635 2°56.019 3.7 81 3.3 102700 49
2012-02-13 08:02 51°13.636 2°56.019 3.1 82 3.3 102700 49
2012-02-13 08:03 51°13.636 2°56.018 4.1 73 3.3 102700 52
2012-02-13 08:04 51°13.635 2°56.018 2.9 78 3.3 102710 49
2012-02-13 08:05 51°13.636 2°56.018 2.7 78 3.3 102710 51
2012-02-13 08:06 51°13.636 2°56.018 3.4 80 3.2 102700 51
2012-02-13 08:07 51°13.636 2°56.019 3.9 80 3.2 102700 48
2012-02-13 08:08 51°13.636 2°56.019 4.1 75 3.2 102700 48
2012-02-13 08:09 51°13.636 2°56.019 3.6 76 3.2 102700 49
2012-02-13 08:10 51°13.637 2°56.019 2.8 74 3.1 102700 48
2012-02-13 08:11 51°13.636 2°56.019 4 74 3.1 102700 48
2012-02-13 08:12 51°13.636 2°56.019 3.7 81 3.2 102700 52
2012-02-13 08:13 51°13.636 2°56.019 5 73 3.1 102700 48
2012-02-13 08:14 51°13.636 2°56.019 4 79 3.1 102700 52
2012-02-13 08:15 51°13.636 2°56.018 3.7 79 3.2 102700 52
2012-02-13 08:16 51°13.637 2°56.018 3.1 74 3.1 102700 48
2012-02-13 08:17 51°13.636 2°56.019 2.9 76 3.1 102700 49
2012-02-13 08:18 51°13.636 2°56.018 3 78 3.1 102690 52
2012-02-13 08:19 51°13.636 2°56.018 3.4 74 3.2 102690 50
2012-02-13 08:20 51°13.636 2°56.018 4 75 3.1 102680 49
2012-02-13 08:21 51°13.636 2°56.018 3.8 79 3.2 102670 52
2012-02-13 08:22 51°13.636 2°56.019 3.3 78 3.1 102670 48
2012-02-13 08:23 51°13.636 2°56.019 3.2 81 3.1 102670 51
2012-02-13 08:24 51°13.636 2°56.019 4 77 3.1 102680 50
2012-02-13 08:25 51°13.636 2°56.019 3.2 78 3.1 102680 48
2012-02-13 08:26 51°13.635 2°56.019 3.8 79 3 102680 52
2012-02-13 08:27 51°13.635 2°56.019 3.7 79 3.1 102680 52
2012-02-13 08:28 51°13.635 2°56.019 3.9 76 3.1 102680 52
2012-02-13 08:29 51°13.636 2°56.019 4.6 75 3.1 102680 52
2012-02-13 08:30 51°13.636 2°56.018 5.5 75 3.1 102680 48
2012-02-13 08:31 51°13.636 2°56.019 4.5 80 3.1 102680 49
2012-02-13 08:32 51°13.636 2°56.018 3.4 79 3.1 102680 47
2012-02-13 08:33 51°13.636 2°56.017 4.3 81 3 102670 51
2012-02-13 08:34 51°13.636 2°56.017 5.1 76 3.1 102670 49
2012-02-13 08:35 51°13.636 2°56.018 3.1 75 3.1 102670 48
2012-02-13 08:36 51°13.636 2°56.018 3.3 79 3.1 102680 49
2012-02-13 08:37 51°13.636 2°56.018 4.5 81 3.2 102680 51
2012-02-13 08:38 51°13.636 2°56.018 4.2 76 3.2 102680 49
2012-02-13 08:39 51°13.636 2°56.018 3.3 81 3.2 102680 48
2012-02-13 08:40 51°13.637 2°56.018 3.1 77 3.2 102680 47
2012-02-13 08:41 51°13.636 2°56.019 2.5 78 3.2 102680 51
2012-02-13 08:42 51°13.635 2°56.019 3.2 75 3.2 102670 48
2012-02-13 08:43 51°13.635 2°56.019 3.3 75 3.2 102670 48
2012-02-13 08:44 51°13.635 2°56.019 4.1 79 3.1 102670 51
2012-02-13 08:45 51°13.635 2°56.019 4.3 80 3.1 102670 48
2012-02-13 08:46 51°13.635 2°56.018 2.9 80 3.1 102670 51
2012-02-13 08:47 51°13.635 2°56.018 2.1 76 3.1 102670 48
2012-02-13 08:48 51°13.635 2°56.019 3 49 3.1 102660 48
2012-02-13 08:49 51°13.636 2°56.018 3 80 3.1 102650 51
2012-02-13 08:50 51°13.636 2°56.018 3.5 79 3.1 102650 48
2012-02-13 08:51 51°13.636 2°56.018 3 76 3.2 102650 48
2012-02-13 08:52 51°13.635 2°56.019 2.8 81 3.2 102640 51
2012-02-13 08:53 51°13.635 2°56.019 2.3 79 3.3 102640 47
2012-02-13 08:54 51°13.635 2°56.018 3.5 76 3.3 102640 50
2012-02-13 08:55 51°13.635 2°56.019 3.3 79 3.3 102630 48
2012-02-13 08:56 51°13.635 2°56.019 2.6 80 3.4 102630 51
2012-02-13 08:57 51°13.636 2°56.018 0.1 77 3.4 102620 49
2012-02-13 08:58 51°13.637 2°56.018 0.8 77 3.3 102620 49
2012-02-13 08:59 51°13.636 2°56.018 0.9 76 3.3 102620 49
2012-02-13 09:00 51°13.636 2°56.017 0.3 77 3.3 102610 50
2012-02-13 09:01 51°13.636 2°56.017 1.6 54 3.3 102610 49
2012-02-13 09:02 51°13.636 2°56.018 0.1 77 3.3 102610 49
2012-02-13 09:03 51°13.636 2°56.018 -999 77 3.3 102610 49
2012-02-13 09:04 51°13.636 2°56.018 -999 77 3.3 102610 49
2012-02-13 09:05 51°13.637 2°56.017 -999 77 3.3 102620 49
2012-02-13 09:06 51°13.636 2°56.018 3.3 58 3.4 102620 49
2012-02-13 09:07 51°13.637 2°56.018 2.2 79 3.3 102620 47
2012-02-13 09:08 51°13.637 2°56.018 2.2 76 3.3 102630 48
2012-02-13 09:09 51°13.637 2°56.018 2.6 74 3.3 102620 47
2012-02-13 09:10 51°13.637 2°56.019 1.6 80 3.3 102620 48
2012-02-13 09:11 51°13.636 2°56.018 2.3 77 3.4 102620 48
2012-02-13 09:12 51°13.637 2°56.018 3.1 78 3.6 102620 51
2012-02-13 09:13 51°13.637 2°56.018 2.7 50 3.6 102620 51
2012-02-13 09:14 51°13.638 2°56.018 2.5 75 3.8 102620 48
2012-02-13 09:15 51°13.638 2°56.019 4.4 51 3.8 102620 48
2012-02-13 09:16 51°13.637 2°56.02 1.4 77 3.8 102610 46
2012-02-13 09:17 51°13.637 2°56.019 2.2 74 3.8 102620 47
2012-02-13 09:18 51°13.637 2°56.018 2.8 74 3.9 102620 48
2012-02-13 09:19 51°13.637 2°56.018 2.9 76 3.9 102620 48
2012-02-13 09:20 51°13.637 2°56.018 1.8 77 3.9 102610 48
2012-02-13 09:21 51°13.634 2°56.015 1.1 80 4.1 102610 47
2012-02-13 09:22 51°13.638 2°56.023 0.5 80 4.2 102610 48
2012-02-13 09:23 51°13.638 2°56.023 2.7 80 4.1 102610 47
2012-02-13 09:24 51°13.635 2°56.019 2.1 59 4.2 102610 48
2012-02-13 09:25 51°13.636 2°56.018 1.8 72 4.3 102610 50
2012-02-13 09:26 51°13.636 2°56.019 1.5 50 4.4 102610 47
2012-02-13 09:27 51°13.635 2°56.016 2.9 74 4.4 102600 46
2012-02-13 09:28 51°13.634 2°56.016 3.6 50 4.3 102590 49
2012-02-13 09:29 51°13.641 2°55.985 5.2 52 4.2 102590 47
2012-02-13 09:30 51°13.671 2°55.87 4.3 51 4.2 102590 47
2012-02-13 09:31 51°13.725 2°55.747 4 52 4.8 102570 49
2012-02-13 09:32 51°13.801 2°55.651 6 80 5 102570 46
2012-02-13 09:33 51°13.897 2°55.612 3.4 42 4.8 102560 44
2012-02-13 09:34 51°13.966 2°55.631 3.5 38 4.5 102560 46
2012-02-13 09:35 51°13.979 2°55.63 4 351 4.3 102550 44
2012-02-13 09:36 51°13.996 2°55.565 5.1 281 4.2 102550 45
2012-02-13 09:37 51°14.081 2°55.483 6 279 4.1 102540 47
2012-02-13 09:38 51°14.203 2°55.366 5.5 280 4 102550 47
2012-02-13 09:39 51°14.338 2°55.23 6.1 286 3.8 102550 47
2012-02-13 09:40 51°14.481 2°55.081 6.4 284 3.6 102540 45
2012-02-13 09:41 51°14.627 2°54.903 8.3 307 3.4 102530 47
2012-02-13 09:42 51°14.787 2°54.709 7.2 306 3.2 102520 45
2012-02-13 09:43 51°14.962 2°54.512 7.2 286 3.1 102520 47
2012-02-13 09:44 51°15.111 2°54.308 8.7 307 3.1 102520 47
2012-02-13 09:45 51°15.261 2°54.105 7.7 281 3 102510 48
2012-02-13 09:46 51°15.413 2°53.885 8 282 3 102500 47
2012-02-13 09:47 51°15.571 2°53.682 8.5 286 3 102500 46
2012-02-13 09:48 51°15.752 2°53.535 8.3 281 3 102510 47
2012-02-13 09:49 51°15.93 2°53.378 9.9 285 3.1 102510 47
2012-02-13 09:50 51°16.109 2°53.233 9.9 287 3.2 102510 47
2012-02-13 09:51 51°16.291 2°53.081 8.1 282 3.2 102520 47
2012-02-13 09:52 51°16.459 2°52.902 10 279 3.2 102520 47
2012-02-13 09:53 51°16.644 2°52.782 8 281 3.3 102520 49
2012-02-13 09:54 51°16.828 2°52.682 9.2 286 3.4 102520 49
2012-02-13 09:55 51°17.01 2°52.569 8.6 280 3.4 102510 49
2012-02-13 09:56 51°17.196 2°52.46 9 280 3.4 102510 48
2012-02-13 09:57 51°17.379 2°52.346 9.2 282 3.4 102500 46
2012-02-13 09:58 51°17.564 2°52.281 7.3 286 3.4 102510 47
2012-02-13 09:59 51°17.755 2°52.255 7.9 281 3.4 102510 47
2012-02-13 10:00 51°17.947 2°52.228 7.3 282 3.4 102510 47
2012-02-13 10:01 51°18.136 2°52.196 7.9 281 3.3 102500 48
2012-02-13 10:02 51°18.328 2°52.137 7.1 279 3.3 102500 48
2012-02-13 10:03 51°18.515 2°52.084 8.2 282 3.3 102500 48
2012-02-13 10:04 51°18.704 2°52.007 8.1 281 3.3 102490 47
2012-02-13 10:05 51°18.891 2°51.919 8.4 281 3.3 102480 47
2012-02-13 10:06 51°19.08 2°51.852 7.6 285 3.3 102480 47
2012-02-13 10:07 51°19.272 2°51.795 7.7 286 3.4 102480 48
2012-02-13 10:08 51°19.458 2°51.73 9.2 280 3.4 102480 47
2012-02-13 10:09 51°19.644 2°51.642 7.9 283 3.4 102480 47
2012-02-13 10:10 51°19.834 2°51.575 8.8 284 3.4 102480 48
2012-02-13 10:11 51°20.021 2°51.486 8.9 284 3.4 102480 49
2012-02-13 10:12 51°20.213 2°51.41 7.6 286 3.4 102480 47
2012-02-13 10:13 51°20.403 2°51.327 9.3 283 3.4 102480 47
2012-02-13 10:14 51°20.595 2°51.243 10.1 283 3.5 102480 47
2012-02-13 10:15 51°20.787 2°51.183 7.7 282 3.5 102480 46
2012-02-13 10:16 51°20.983 2°51.115 9.4 284 3.5 102480 46
2012-02-13 10:17 51°21.172 2°51.035 7.9 286 3.5 102470 48
2012-02-13 10:18 51°21.366 2°50.967 8.1 281 3.6 102470 47
2012-02-13 10:19 51°21.561 2°50.875 8.4 283 3.7 102470 48
2012-02-13 10:20 51°21.757 2°50.814 7.8 282 3.7 102470 48
2012-02-13 10:21 51°21.955 2°50.746 8 285 3.7 102460 47
2012-02-13 10:22 51°22.144 2°50.66 9.8 285 3.8 102450 48
2012-02-13 10:23 51°22.339 2°50.6 10.5 284 3.8 102450 47
2012-02-13 10:24 51°22.527 2°50.534 10.8 282 3.9 102440 47
2012-02-13 10:25 51°22.718 2°50.458 9.1 286 3.9 102440 47
2012-02-13 10:26 51°22.911 2°50.383 10.6 286 3.9 102440 46
2012-02-13 10:27 51°23.101 2°50.322 8.5 279 3.9 102450 47
2012-02-13 10:28 51°23.29 2°50.261 10.5 288 4 102450 46
2012-02-13 10:29 51°23.475 2°50.179 8.8 280 4 102450 47
2012-02-13 10:30 51°23.669 2°50.09 11 286 4.1 102450 46
2012-02-13 10:31 51°23.858 2°50.019 9.1 281 4.1 102450 46
2012-02-13 10:32 51°24.047 2°49.914 10.4 282 4.1 102450 45
2012-02-13 10:33 51°24.23 2°49.828 8.8 281 4.2 102450 47
2012-02-13 10:34 51°24.42 2°49.748 10.6 282 4.2 102440 46
2012-02-13 10:35 51°24.603 2°49.658 12 281 4.2 102450 45
2012-02-13 10:36 51°24.775 2°49.502 9.4 282 4.2 102450 47
2012-02-13 10:37 51°24.948 2°49.326 11.9 287 4.3 102450 45
2012-02-13 10:38 51°25.125 2°49.174 12.6 287 4.3 102450 45
2012-02-13 10:39 51°25.299 2°49.006 12.4 285 4.3 102440 47
2012-02-13 10:40 51°25.475 2°48.867 9.4 286 4.3 102440 45
2012-02-13 10:41 51°25.65 2°48.708 9.2 281 4.4 102460 47
2012-02-13 10:42 51°25.823 2°48.552 11.5 287 4.4 102430 46
2012-02-13 10:43 51°26.004 2°48.445 11.5 281 4.4 102430 45
2012-02-13 10:44 51°26.126 2°48.373 7.6 283 4.4 102440 47
2012-02-13 10:45 51°26.168 2°48.367 4.9 280 4.4 102450 46
2012-02-13 10:46 51°26.17 2°48.37 4.9 289 4.4 102450 45
2012-02-13 10:47 51°26.162 2°48.365 5.2 287 4.4 102440 46
2012-02-13 10:48 51°26.15 2°48.351 5.6 281 4.4 102450 47
2012-02-13 10:49 51°26.131 2°48.334 4.5 283 4.4 102440 45
2012-02-13 10:50 51°26.109 2°48.316 5.9 281 4.4 102440 47
2012-02-13 10:51 51°26.087 2°48.297 5.7 75 4.3 102440 46
2012-02-13 10:52 51°26.073 2°48.296 4.4 76 4.3 102440 47
2012-02-13 10:53 51°26.058 2°48.405 2.5 77 4.4 102450 45
2012-02-13 10:54 51°26.072 2°48.528 4.4 74 4.4 102450 48
2012-02-13 10:55 51°26.081 2°48.552 4.2 283 4.4 102440 48
2012-02-13 10:56 51°26.076 2°48.541 4.7 282 4.3 102440 46
2012-02-13 10:57 51°26.065 2°48.526 3.7 285 4.3 102440 48
2012-02-13 10:58 51°26.047 2°48.508 4.4 288 4.3 102430 48
2012-02-13 10:59 51°26.027 2°48.49 4.6 281 4.3 102440 48
2012-02-13 11:00 51°26.006 2°48.471 5 286 4.3 102430 46
2012-02-13 11:01 51°25.98 2°48.451 5.8 279 4.2 102430 46
2012-02-13 11:02 51°25.954 2°48.429 5.6 81 4.2 102430 48
2012-02-13 11:03 51°25.929 2°48.408 5.4 285 4.2 102430 46
2012-02-13 11:04 51°25.968 2°48.46 5.5 283 4.2 102430 48
2012-02-13 11:05 51°26.067 2°48.543 5.8 280 4.3 102420 46
2012-02-13 11:06 51°26.167 2°48.61 6.2 285 4.3 102420 48
2012-02-13 11:07 51°26.238 2°48.646 6.1 284 4.4 102410 46
2012-02-13 11:08 51°26.273 2°48.647 5.3 279 4.4 102410 49
2012-02-13 11:09 51°26.285 2°48.642 4.5 280 4.4 102420 46
2012-02-13 11:10 51°26.285 2°48.631 5.6 280 4.4 102420 49
2012-02-13 11:11 51°26.284 2°48.617 6.3 285 4.5 102420 46
2012-02-13 11:12 51°26.281 2°48.602 6.1 285 4.5 102410 47
2012-02-13 11:13 51°26.274 2°48.587 6.5 281 4.5 102410 48
2012-02-13 11:14 51°26.267 2°48.571 5.7 284 4.5 102410 48
2012-02-13 11:15 51°26.26 2°48.554 7.3 285 4.5 102400 46
2012-02-13 11:16 51°26.255 2°48.535 6.9 287 4.6 102400 48
2012-02-13 11:17 51°26.251 2°48.514 5.6 281 4.6 102400 47
2012-02-13 11:18 51°26.249 2°48.49 5.8 283 4.6 102400 48
2012-02-13 11:19 51°26.244 2°48.465 5.8 285 4.7 102400 46
2012-02-13 11:20 51°26.237 2°48.442 7.4 286 4.7 102390 46
2012-02-13 11:21 51°26.231 2°48.423 6 283 4.6 102380 46
2012-02-13 11:22 51°26.225 2°48.406 7.2 285 4.6 102390 48
2012-02-13 11:23 51°26.221 2°48.389 5.1 286 4.6 102390 47
2012-02-13 11:24 51°26.219 2°48.374 7 285 4.6 102390 46
2012-02-13 11:25 51°26.214 2°48.361 6 281 4.5 102380 48
2012-02-13 11:26 51°26.21 2°48.348 5.9 284 4.5 102390 48
2012-02-13 11:27 51°26.207 2°48.332 6.5 281 4.5 102380 47
2012-02-13 11:28 51°26.204 2°48.318 4.5 279 4.5 102380 45
2012-02-13 11:29 51°26.198 2°48.311 4.9 283 4.5 102390 49
2012-02-13 11:30 51°26.194 2°48.305 4.7 286 4.4 102390 49
2012-02-13 11:31 51°26.19 2°48.296 5.5 284 4.4 102380 47
2012-02-13 11:32 51°26.185 2°48.287 6.4 279 4.5 102390 47
2012-02-13 11:33 51°26.177 2°48.276 5.6 280 4.4 102390 46
2012-02-13 11:34 51°26.171 2°48.265 6.3 283 4.4 102380 46
2012-02-13 11:35 51°26.166 2°48.253 7.4 282 4.5 102380 48
2012-02-13 11:36 51°26.16 2°48.239 5.8 285 4.5 102380 46
2012-02-13 11:37 51°26.157 2°48.224 7.1 281 4.5 102380 48
2012-02-13 11:38 51°26.153 2°48.207 5.9 281 4.5 102380 49
2012-02-13 11:39 51°26.148 2°48.189 6 284 4.5 102380 49
2012-02-13 11:40 51°26.14 2°48.17 6.4 285 4.5 102380 48
2012-02-13 11:41 51°26.136 2°48.156 5.5 282 4.5 102380 49
2012-02-13 11:42 51°26.14 2°48.158 4.8 284 4.5 102390 49
2012-02-13 11:43 51°26.139 2°48.156 4.2 279 4.5 102380 48
2012-02-13 11:44 51°26.136 2°48.152 6.9 282 4.5 102400 47
2012-02-13 11:45 51°26.136 2°48.151 5.2 280 4.5 102380 46
2012-02-13 11:46 51°26.139 2°48.148 6.9 280 4.5 102380 47
2012-02-13 11:47 51°26.143 2°48.144 7.4 281 4.5 102370 49
2012-02-13 11:48 51°26.143 2°48.137 8.8 282 4.5 102370 49
2012-02-13 11:49 51°26.143 2°48.127 10.3 282 4.5 102370 48
2012-02-13 11:50 51°26.144 2°48.116 7.2 279 4.5 102360 47
2012-02-13 11:51 51°26.146 2°48.101 7.6 283 4.6 102360 48
2012-02-13 11:52 51°26.152 2°48.08 8.3 285 4.5 102350 47
2012-02-13 11:53 51°26.157 2°48.04 8.5 282 4.5 102350 46
2012-02-13 11:54 51°26.142 2°47.93 9.7 284 4.5 102350 48
2012-02-13 11:55 51°26.033 2°47.723 10.7 283 4.5 102330 47
2012-02-13 11:56 51°25.896 2°47.436 12.9 282 4.4 102340 47
2012-02-13 11:57 51°25.762 2°47.141 10.5 282 4.4 102320 47
2012-02-13 11:58 51°25.624 2°46.849 10.3 281 4.4 102340 48
2012-02-13 11:59 51°25.49 2°46.554 13.4 284 4.4 102340 48
2012-02-13 12:00 51°25.344 2°46.274 14.2 345 4.4 102330 47
2012-02-13 12:01 51°25.208 2°45.98 11.2 282 4.4 102340 48
2012-02-13 12:02 51°25.076 2°45.684 11.4 286 4.4 102340 48
2012-02-13 12:03 51°24.936 2°45.392 10.7 286 4.4 102340 48
2012-02-13 12:04 51°24.792 2°45.105 16.1 278 4.4 102340 47
2012-02-13 12:05 51°24.658 2°44.803 5.7 283 4.4 102330 47
2012-02-13 12:06 51°24.522 2°44.503 13 285 4.4 102330 47
2012-02-13 12:07 51°24.387 2°44.196 10.5 281 4.4 102340 47
2012-02-13 12:08 51°24.246 2°43.896 10.6 278 4.4 102340 45
2012-02-13 12:09 51°24.106 2°43.594 14.8 286 4.4 102340 48
2012-02-13 12:10 51°23.973 2°43.283 15.5 345 4.4 102340 47
2012-02-13 12:11 51°23.839 2°42.974 6.5 278 4.4 102320 47
2012-02-13 12:12 51°23.695 2°42.678 14.9 282 4.4 102330 47
2012-02-13 12:13 51°23.556 2°42.377 12 282 4.4 102330 46
2012-02-13 12:14 51°23.421 2°42.075 14 286 4.4 102330 47
2012-02-13 12:15 51°23.288 2°41.772 13 281 4.4 102330 47
2012-02-13 12:16 51°23.151 2°41.474 14.1 283 4.4 102320 46
2012-02-13 12:17 51°23.01 2°41.174 13.7 281 4.4 102320 47
2012-02-13 12:18 51°22.875 2°40.881 13.5 286 4.4 102320 48
2012-02-13 12:19 51°22.738 2°40.574 10.7 283 4.4 102320 47
2012-02-13 12:20 51°22.565 2°40.348 12.3 349 4.4 102310 47
2012-02-13 12:21 51°22.347 2°40.26 10.3 1 4.4 102320 46
2012-02-13 12:22 51°22.128 2°40.26 11.1 360 4.3 102320 46
2012-02-13 12:23 51°21.903 2°40.251 11.6 1 4.3 102320 46
2012-02-13 12:24 51°21.678 2°40.227 10.4 2 4.3 102320 45
2012-02-13 12:25 51°21.454 2°40.211 9.9 359 4.2 102320 46
2012-02-13 12:26 51°21.229 2°40.192 9.2 360 4.2 102320 47
2012-02-13 12:27 51°21.006 2°40.161 11.2 360 4.2 102310 47
2012-02-13 12:28 51°20.779 2°40.136 10.1 358 4.2 102320 47
2012-02-13 12:29 51°20.562 2°40.131 9.6 356 4.2 102320 48
2012-02-13 12:30 51°20.334 2°40.103 10.1 358 4.1 102310 48
2012-02-13 12:31 51°20.115 2°40.067 10 356 4.1 102310 48
2012-02-13 12:32 51°19.895 2°40.041 8.4 355 4 102310 46
2012-02-13 12:33 51°19.673 2°40.023 9.5 353 4 102310 47
2012-02-13 12:34 51°19.454 2°39.99 9.7 355 3.9 102300 48
2012-02-13 12:35 51°19.235 2°39.964 7.9 355 3.8 102310 49
2012-02-13 12:36 51°19.021 2°39.945 9.2 356 3.8 102310 49
2012-02-13 12:37 51°18.799 2°39.914 9.7 357 3.8 102310 48
2012-02-13 12:38 51°18.585 2°39.906 7.9 358 3.7 102300 48
2012-02-13 12:39 51°18.369 2°39.894 9.2 -999 3.7 102300 48
2012-02-13 12:40 51°18.153 2°39.865 12.1 358 3.7 102290 48
2012-02-13 12:41 51°17.938 2°39.842 11.7 358 3.7 102290 49
2012-02-13 12:42 51°17.718 2°39.814 10 359 3.6 102290 48
2012-02-13 12:43 51°17.501 2°39.802 10.2 2 3.5 102290 49
2012-02-13 12:44 51°17.284 2°39.79 11.1 1 3.5 102280 50
2012-02-13 12:45 51°17.065 2°39.762 8.8 1 3.5 102280 50
2012-02-13 12:46 51°16.839 2°39.711 12.1 357 3.5 102280 50
2012-02-13 12:47 51°16.624 2°39.587 13.8 353 3.5 102270 48
2012-02-13 12:48 51°16.412 2°39.446 11 352 3.5 102270 48
2012-02-13 12:49 51°16.197 2°39.324 10.2 353 3.4 102270 48
2012-02-13 12:50 51°15.991 2°39.158 11.6 281 3.4 102260 50
2012-02-13 12:51 51°15.789 2°38.988 10.7 351 3.4 102260 50
2012-02-13 12:52 51°15.579 2°38.833 13 349 3.4 102260 50
2012-02-13 12:53 51°15.376 2°38.663 9.3 349 3.4 102250 50
2012-02-13 12:54 51°15.169 2°38.502 5.7 350 3.4 102250 49
2012-02-13 12:55 51°14.959 2°38.351 11.2 351 3.5 102250 50
2012-02-13 12:56 51°14.751 2°38.207 13.8 349 3.4 102250 49
2012-02-13 12:57 51°14.534 2°38.061 11 351 3.5 102240 48
2012-02-13 12:58 51°14.32 2°37.959 9.2 353 3.5 102240 49
2012-02-13 12:59 51°14.093 2°37.899 12.1 354 3.5 102230 50
2012-02-13 13:00 51°13.874 2°37.823 9.4 355 3.5 102230 49
2012-02-13 13:01 51°13.658 2°37.767 8.8 357 3.5 102230 48
2012-02-13 13:02 51°13.444 2°37.703 14.7 355 3.5 102230 50
2012-02-13 13:03 51°13.233 2°37.635 9.6 356 3.5 102230 49
2012-02-13 13:04 51°13.023 2°37.583 10.1 353 3.4 102230 48
2012-02-13 13:05 51°12.809 2°37.51 9.9 355 3.4 102220 49
2012-02-13 13:06 51°12.599 2°37.415 13.6 353 3.4 102220 50
2012-02-13 13:07 51°12.39 2°37.313 13.8 353 3.4 102220 50
2012-02-13 13:08 51°12.184 2°37.205 10.7 353 3.4 102210 48
2012-02-13 13:09 51°11.979 2°37.095 14.2 353 3.4 102210 48
2012-02-13 13:10 51°11.778 2°36.972 12.6 355 3.4 102200 49
2012-02-13 13:11 51°11.569 2°36.868 13.8 353 3.4 102200 49
2012-02-13 13:12 51°11.367 2°36.751 9.7 352 3.5 102190 47
2012-02-13 13:13 51°11.16 2°36.65 14.5 356 3.5 102200 50
2012-02-13 13:14 51°10.955 2°36.543 15.6 355 3.5 102200 50
2012-02-13 13:15 51°10.746 2°36.464 9.1 357 3.5 102200 49
2012-02-13 13:16 51°10.536 2°36.507 9.1 8 3.5 102210 49
2012-02-13 13:17 51°10.336 2°36.629 6.3 8 3.5 102220 48
2012-02-13 13:18 51°10.14 2°36.76 9 10 3.5 102220 48
2012-02-13 13:19 51°9.946 2°36.878 7 6 3.5 102220 50
2012-02-13 13:20 51°9.743 2°36.978 6.2 6 3.5 102220 49
2012-02-13 13:21 51°9.546 2°37.075 7.2 7 3.5 102220 49
2012-02-13 13:22 51°9.359 2°37.192 7.5 14 3.5 102210 47
2012-02-13 13:23 51°9.238 2°37.239 8.1 9 3.4 102220 49
2012-02-13 13:24 51°9.167 2°37.185 8.5 346 3.4 102210 48
2012-02-13 13:25 51°9.148 2°37.096 9.4 324 3.4 102210 49
2012-02-13 13:26 51°9.151 2°37.055 7.1 307 3.5 102210 48
2012-02-13 13:27 51°9.141 2°37.054 7.4 308 3.5 102200 50
2012-02-13 13:28 51°9.13 2°37.056 8.2 310 3.5 102210 48
2012-02-13 13:29 51°9.12 2°37.061 4.2 309 3.5 102210 48
2012-02-13 13:30 51°9.111 2°37.065 4.7 304 3.5 102210 50
2012-02-13 13:31 51°9.105 2°37.073 5.2 310 3.5 102210 49
2012-02-13 13:32 51°9.1 2°37.082 5.4 302 3.5 102220 50
2012-02-13 13:33 51°9.096 2°37.093 4.8 307 3.4 102210 50
2012-02-13 13:34 51°9.093 2°37.103 4.5 307 3.4 102210 47
2012-02-13 13:35 51°9.09 2°37.112 4.8 285 3.4 102200 47
2012-02-13 13:36 51°9.087 2°37.121 4.6 307 3.4 102200 46
2012-02-13 13:37 51°9.083 2°37.134 6.6 285 3.4 102200 49
2012-02-13 13:38 51°9.08 2°37.143 7.4 302 3.4 102200 50
2012-02-13 13:39 51°9.077 2°37.155 7.1 287 3.4 102200 49
2012-02-13 13:40 51°9.075 2°37.168 7 307 3.4 102190 50
2012-02-13 13:41 51°9.074 2°37.181 6.6 305 3.5 102190 50
2012-02-13 13:42 51°9.073 2°37.194 6.9 311 3.5 102190 48
2012-02-13 13:43 51°9.071 2°37.209 7.3 309 3.5 102180 49
2012-02-13 13:44 51°9.071 2°37.225 6.6 310 3.5 102190 49
2012-02-13 13:45 51°9.071 2°37.241 8.1 309 3.5 102180 48
2012-02-13 13:46 51°9.072 2°37.26 7.6 281 3.6 102180 49
2012-02-13 13:47 51°9.074 2°37.278 8 280 3.6 102170 49
2012-02-13 13:48 51°9.079 2°37.295 7.1 306 3.6 102180 48
2012-02-13 13:49 51°9.081 2°37.313 6.9 287 3.6 102170 48
2012-02-13 13:50 51°9.083 2°37.333 7 303 3.6 102170 50
2012-02-13 13:51 51°9.083 2°37.354 7.9 286 3.6 102170 50
2012-02-13 13:52 51°9.083 2°37.377 7.1 285 3.6 102170 47
2012-02-13 13:53 51°9.108 2°37.374 10.7 284 3.6 102160 50
2012-02-13 13:54 51°9.106 2°37.263 9.7 284 3.6 102160 49
2012-02-13 13:55 51°9.098 2°37.125 9.1 280 3.6 102160 48
2012-02-13 13:56 51°9.134 2°37.077 8.3 280 3.7 102170 49
2012-02-13 13:57 51°9.144 2°37.092 8.6 284 3.7 102180 50
2012-02-13 13:58 51°9.143 2°37.119 5.3 280 3.7 102180 47
2012-02-13 13:59 51°9.142 2°37.149 5.3 286 3.6 102170 48
2012-02-13 14:00 51°9.138 2°37.177 4.7 285 3.6 102170 46
2012-02-13 14:01 51°9.135 2°37.21 4.7 280 3.6 102180 50
2012-02-13 14:02 51°9.134 2°37.24 7.5 280 3.5 102170 51
2012-02-13 14:03 51°9.171 2°37.255 9.4 282 3.5 102180 49
2012-02-13 14:04 51°9.195 2°37.226 8.4 325 3.6 102170 48
2012-02-13 14:05 51°9.205 2°37.219 8.6 280 3.6 102160 50
2012-02-13 14:06 51°9.215 2°37.23 6.8 307 3.6 102160 49
2012-02-13 14:07 51°9.223 2°37.253 7.1 280 3.7 102150 48
2012-02-13 14:08 51°9.228 2°37.283 6.6 282 3.6 102150 49
2012-02-13 14:09 51°9.23 2°37.32 6.4 280 3.6 102150 48
2012-02-13 14:10 51°9.236 2°37.359 7 280 3.6 102150 48
2012-02-13 14:11 51°9.276 2°37.341 7.9 282 3.6 102150 49
2012-02-13 14:12 51°9.275 2°37.298 8 344 3.6 102150 49
2012-02-13 14:13 51°9.27 2°37.287 7.5 344 3.6 102150 50
2012-02-13 14:14 51°9.265 2°37.294 6.7 286 3.6 102150 50
2012-02-13 14:15 51°9.26 2°37.31 7.1 344 3.6 102150 50
2012-02-13 14:16 51°9.255 2°37.328 6.7 280 3.6 102140 47
2012-02-13 14:17 51°9.25 2°37.347 6.3 348 3.6 102140 50
2012-02-13 14:18 51°9.244 2°37.366 6.5 280 3.6 102140 48
2012-02-13 14:19 51°9.237 2°37.385 7 351 3.5 102140 50
2012-02-13 14:20 51°9.231 2°37.402 6.2 352 3.5 102140 50
2012-02-13 14:21 51°9.225 2°37.413 7.4 348 3.5 102140 48
2012-02-13 14:22 51°9.219 2°37.423 7.3 281 3.5 102130 48
2012-02-13 14:23 51°9.212 2°37.433 6.3 280 3.5 102140 49
2012-02-13 14:24 51°9.208 2°37.442 6.9 347 3.5 102140 49
2012-02-13 14:25 51°9.204 2°37.451 6.8 348 3.5 102140 49
2012-02-13 14:26 51°9.203 2°37.458 7.7 341 3.5 102130 50
2012-02-13 14:27 51°9.215 2°37.448 7.6 282 3.5 102130 49
2012-02-13 14:28 51°9.28 2°37.5 4.1 303 3.5 102150 48
2012-02-13 14:29 51°9.365 2°37.706 7 285 3.5 102150 51
2012-02-13 14:30 51°9.47 2°38.001 5 281 3.5 102140 48
2012-02-13 14:31 51°9.559 2°38.343 4.8 306 3.6 102150 51
2012-02-13 14:32 51°9.64 2°38.691 5.3 284 3.6 102140 47
2012-02-13 14:33 51°9.727 2°39.036 5.2 303 3.6 102130 48
2012-02-13 14:34 51°9.813 2°39.382 4.8 279 3.6 102140 51
2012-02-13 14:35 51°9.911 2°39.724 4.9 307 3.6 102130 50
2012-02-13 14:36 51°9.998 2°40.075 5 280 3.5 102130 50
2012-02-13 14:37 51°10.088 2°40.426 4.3 311 3.6 102130 50
2012-02-13 14:38 51°10.182 2°40.775 4.5 281 3.5 102120 49
2012-02-13 14:39 51°10.273 2°41.125 4.4 304 3.5 102120 48
2012-02-13 14:40 51°10.364 2°41.476 4.7 304 3.5 102120 50
2012-02-13 14:41 51°10.458 2°41.825 4.2 304 3.4 102110 51
2012-02-13 14:42 51°10.557 2°42.168 5 309 3.4 102110 51
2012-02-13 14:43 51°10.642 2°42.522 3.8 285 3.4 102100 48
2012-02-13 14:44 51°10.735 2°42.87 5.2 303 3.4 102090 48
2012-02-13 14:45 51°10.836 2°43.214 4.1 287 3.4 102100 48
2012-02-13 14:46 51°10.919 2°43.561 3.6 282 3.4 102100 51
2012-02-13 14:47 51°11.017 2°43.911 3.6 284 3.4 102090 51
2012-02-13 14:48 51°11.114 2°44.254 3.5 285 3.3 102080 50
2012-02-13 14:49 51°11.205 2°44.603 3.2 280 3.3 102090 51
2012-02-13 14:50 51°11.296 2°44.954 3.6 281 3.3 102080 51
2012-02-13 14:51 51°11.396 2°45.296 3.5 285 3.3 102090 48
2012-02-13 14:52 51°11.502 2°45.634 3.2 284 3.3 102080 48
2012-02-13 14:53 51°11.596 2°45.982 3.7 283 3.2 102070 51
2012-02-13 14:54 51°11.684 2°46.335 3.3 283 3.2 102070 48
2012-02-13 14:55 51°11.784 2°46.678 4.2 285 3.2 102060 48
2012-02-13 14:56 51°11.88 2°47.018 4.3 282 3.2 102080 50
2012-02-13 14:57 51°11.977 2°47.361 3.8 280 3.2 102070 48
2012-02-13 14:58 51°12.063 2°47.71 4.1 286 3.1 102050 48
2012-02-13 14:59 51°12.169 2°48.047 3.6 280 3.1 102050 49
2012-02-13 15:00 51°12.273 2°48.383 3.4 281 3.1 102040 51
2012-02-13 15:01 51°12.376 2°48.725 4.3 278 3.1 102040 49
2012-02-13 15:02 51°12.476 2°49.068 5 286 3 102040 48
2012-02-13 15:03 51°12.583 2°49.408 5 282 3 102040 48
2012-02-13 15:04 51°12.69 2°49.748 4.8 286 3 102040 47
2012-02-13 15:05 51°8.105 2°58.95 3.3 26 3.5 102700 48
2012-02-13 15:05 51°12.824 2°50.128 4.4 286 3 102040 49
2012-02-13 15:06 51°12.934 2°50.47 4.3 280 3 102030 48
2012-02-13 15:07 51°13.043 2°50.802 4.8 281 3 102040 49
2012-02-13 15:08 51°13.155 2°51.143 4.7 285 3 102030 49
2012-02-13 15:09 51°13.271 2°51.478 5.6 282 3 102030 50
2012-02-13 15:10 51°13.422 2°51.775 6.6 281 3 102030 50
2012-02-13 15:11 51°13.571 2°52.078 6.3 280 2.9 102030 50
2012-02-13 15:12 51°13.715 2°52.388 5.9 280 2.9 102020 48
2012-02-13 15:13 51°13.853 2°52.703 6.3 285 2.9 102020 48
2012-02-13 15:14 51°13.996 2°53.014 5.8 281 2.9 102020 48
2012-02-13 15:15 51°14.137 2°53.327 5.3 284 2.9 102020 50
2012-02-13 15:16 51°14.27 2°53.647 5.6 281 2.8 102020 50
2012-02-13 15:17 51°14.416 2°53.953 6.9 285 2.9 102020 51
2012-02-13 15:18 51°14.547 2°54.277 5.2 285 2.9 102010 50
2012-02-13 15:19 51°14.649 2°54.628 3.1 285 2.9 102010 51
2012-02-13 15:20 51°14.584 2°54.96 2.4 357 2.9 102010 51
2012-02-13 15:21 51°14.415 2°55.168 4.2 5 2.9 102000 48
2012-02-13 15:22 51°14.253 2°55.309 4.6 6 2.8 102010 48
2012-02-13 15:23 51°14.122 2°55.413 4.4 8 2.8 102010 49
2012-02-13 15:24 51°14.013 2°55.496 2.6 18 2.8 102000 51
2012-02-13 15:25 51°13.931 2°55.554 -999 23 3 102010 51
2012-02-13 15:26 51°13.845 2°55.616 3.7 20 3.1 102010 50
2012-02-13 15:27 51°13.764 2°55.698 1 77 3.3 102010 50
2012-02-13 15:28 51°13.701 2°55.814 -999 37 3.4 102010 49
2012-02-13 15:29 51°13.66 2°55.917 1.9 52 3.5 102010 51
2012-02-13 15:30 51°13.642 2°55.997 4.1 75 3.6 102010 48